Notices

What's New in latest Release from April 7th, 2021:

- Updated Glossary, including Speed of Maximum Gust, and Total Hourly Precipitation

- Updated national and regional climate services offices contacts and prices information

- Addition of station inventory lists for 1981-2010, 1971-2000, and 1961-1990 Normals.

If you haven't already, please take our survey and provide feedback about our website: https://eccc.sondage-survey.ca/f/LanguageSelection.aspx?s=442ca660-fcf1-47c0-95a9-59707d6fd709

Hourly Data Report for December 09, 2020

CARBERRY CS
MANITOBA
Current Station Operator: ECCC - MSC

49°54'20.900" N
99°21'26.800" W
383.50 m
5010547
71170
WZE

Download Data

Hourly Data (December 2020)
Hourly Data Report for December 9, 2020
TIME
LST
Temp Definition
°C
Dew Point Definition
°C
Rel Hum Definition
%
Precip. Amount Definition
mm

Wind Dir Definition
10's deg

Wind Spd Definition
km/h
Visibility Definition
km
Stn Press Definition
kPa
Hmdx Definition


Wind Chill Definition


Weather Definition


00:00 -3.7 -6.1 84 0.0 26 7   96.48   -7 LegendNANA
01:00 -1.0 -4.3 78 0.0 24 14   96.49   -5 LegendNANA
02:00 -1.6 -3.9 84 0.0 26 17   96.52   -7 LegendNANA
03:00 -1.8 -3.7 87 0.0 27 20   96.60   -8 LegendNANA
04:00 -2.4 -4.3 86 0.0 26 14   96.60   -7 LegendNANA
05:00 -3.3 -4.6 91 0.0 26 16   96.58   -9 LegendNANA
06:00 -3.8 -5.0 91 0.0 25 11   96.63   -8 LegendNANA
07:00 -5.1 -5.7 95 0.0 27 8   96.71   -9 LegendNANA
08:00 -4.1 -5.1 92 0.0 24 7   96.68   -7 LegendNANA
09:00 -2.5 -3.8 91 0.0 25 11   96.69   -7 LegendNANA
10:00 -1.2 -3.1 87 0.0 25 11   96.70   -5 LegendNANA
11:00 1.3 -1.9 80 0.0 26 24   96.71     LegendNANA
12:00 2.6 -1.5 75 0.0 26 15   96.67     LegendNANA
13:00 2.6 -1.2 76 0.0 25 13   96.60     LegendNANA
14:00 2.8 -1.3 74 0.0 24 12   96.58     LegendNANA
15:00 2.7 -1.2 76 0.0 19 10   96.51     LegendNANA
16:00 2.5 -1.1 77 0.0 22 9   96.49     LegendNANA
17:00 2.4 -0.9 79 0.0 25 11   96.52     LegendNANA
18:00 1.7 0.4 91 0.0 29 10   96.55     LegendNANA
19:00 1.5 1.4 100 0.0 31 8   96.55     LegendNANA
20:00 1.9 1.9 100 1.5 30 6   96.56     LegendNANA
21:00 1.8 1.7 100 1.0 30 7   96.60     LegendNANA
22:00 2.0 2.0 100 0.7 31 8   96.58     LegendNANA
23:00 1.5 1.5 100 0.8 29 7   96.59     LegendNANA

Notes on Data Quality.

Legend

  • E = Estimated
  • M = Missing
  • NA = Not Available*
  • [empty] = Indicates an unobserved value
Date modified: